GW2476 Weather Reports


time (UTC)temp
C
wind
direction
speed
KPH
gust
KPH
rain 1hr
cm
rain 24hr
cm
rain mn
cm
humidity
%
barometer
mb
20260509201454 13 204 4.8 9.7 0.00 0.94 0.94 95 1009.6
20260509200952 13 334 1.6 8.0 0.00 0.94 0.94 96 1009.5
20260509200446 12 336 1.6 3.2 0.00 0.94 0.94 96 1009.6
20260509195943 12 30 1.6 1.6 0.00 0.94 0.94 98 1009.7
20260509195433 12 13 0.0 3.2 0.00 0.94 0.94 98 1009.7
20260509194932 12 3 0.0 1.6 0.00 0.94 0.94 97 1009.7
20260509194428 12 98 1.6 8.0 0.18 0.94 0.94 97 1009.8
20260509193926 12 21 1.6 1.6 0.18 0.94 0.94 98 1009.8
20260509193425 12 42 1.6 1.6 0.13 0.91 0.91 99 1010.2
20260509192921 12 96 1.6 3.2 0.13 0.91 0.91 98 1010.0
20260509192418 12 37 0.0 3.2 0.00 0.89 0.89 98 1010.1
20260509191913 12 94 3.2 3.2 0.00 0.89 0.89 97 1010.1
20260509191409 12 109 3.2 4.8 0.00 0.89 0.89 98 1010.1
20260509190905 12 40 1.6 3.2 0.00 0.89 0.89 97 1010.0
20260509190402 12 45 0.0 3.2 0.00 0.89 0.89 98 1010.0
20260509185900 12 45 1.6 1.6 0.00 0.89 0.89 98 1010.1
20260509185356 12 42 1.6 1.6 0.00 0.89 0.89 99 1010.2
20260509184853 12 22 1.6 3.2 0.18 0.89 0.89 99 1010.3
20260509184350 12 323 1.6 3.2 0.00 0.86 0.86 99 1010.2
20260509183847 12 20 0.0 1.6 0.13 0.86 0.86 99 1010.1
20260509183342 12 51 1.6 3.2 0.13 0.86 0.86 98 1010.1
20260509182838 12 44 0.0 1.6 0.00 0.84 0.84 99 1010.2
20260509182336 12 44 0.0 1.6 0.18 0.84 0.84 98 1010.2
20260509181833 12 23 0.0 4.8 0.18 0.84 0.84 99 1010.1
20260509181330 12 3 1.6 1.6 0.00 0.81 0.81 99 1010.1
20260509180827 12 81 3.2 4.8 0.00 0.81 0.81 99 1010.2
20260509180323 11 44 1.6 3.2 0.13 0.81 0.81 99 1010.3
20260509175820 11 176 3.2 4.8 0.00 0.79 0.79 99 1010.1
20260509175316 11 175 4.8 8.0 0.18 0.79 0.79 99 1010.3
20260509174812 11 33 0.0 1.6 0.18 0.79 0.79 99 1010.1
20260509174308 11 40 0.0 1.6 0.00 0.76 0.76 99 1010.2
20260509173804 11 42 0.0 0.0 0.00 0.76 0.76 99 1010.2
20260509173300 11 43 0.0 1.6 0.00 0.76 0.76 99 1010.2
20260509172756 11 37 1.6 4.8 0.18 0.76 0.76 99 1010.2
20260509172253 11 38 0.0 0.0 0.30 0.76 0.76 99 1010.2
20260509171748 11 40 0.0 1.6 0.13 0.74 0.74 99 1010.2
20260509171245 11 160 4.8 8.0 0.18 0.71 0.71 99 1010.2
20260509170741 11 63 1.6 3.2 0.18 0.71 0.71 99 1010.3
20260509170237 11 38 0.0 1.6 0.13 0.69 0.69 99 1010.2
20260509165736 11 33 1.6 4.8 0.13 0.69 0.69 99 1010.1
20260509165231 11 45 0.0 1.6 0.00 0.66 0.66 99 1010.2
20260509164727 11 61 1.6 4.8 0.00 0.66 0.66 99 1010.3
20260509164223 11 52 1.6 1.6 0.00 0.66 0.66 99 1010.3
20260509163721 11 46 1.6 4.8 0.00 0.66 0.66 99 1010.4
20260509163217 11 54 1.6 1.6 0.00 0.66 0.66 99 1010.3
20260509162715 11 54 0.0 1.6 0.18 0.66 0.66 99 1010.3
20260509162210 11 53 0.0 1.6 0.00 0.64 0.64 99 1010.6
20260509161706 11 43 1.6 3.2 0.00 0.64 0.64 99 1010.6
20260509161202 11 46 0.0 3.2 0.00 0.64 0.64 99 1010.7
20260509160657 11 52 0.0 1.6 0.13 0.64 0.64 99 1010.8
20260509160154 11 52 0.0 1.6 0.13 0.64 0.64 99 1010.8
20260509155649 11 44 1.6 1.6 0.18 0.61 0.61 99 1010.7
20260509155146 11 44 1.6 1.6 0.18 0.61 0.61 99 1010.5
20260509154641 11 50 3.2 3.2 0.00 0.58 0.58 99 1010.7
20260509154139 11 42 1.6 8.0 0.00 0.58 0.58 99 1010.7
20260509153636 11 26 0.0 3.2 0.00 0.58 0.58 99 1010.7
20260509153133 11 38 0.0 4.8 0.00 0.58 0.58 99 1010.6
20260509152628 11 59 4.8 9.7 0.00 0.58 0.58 99 1010.6
20260509152126 11 44 0.0 8.0 0.00 0.58 0.58 99 1010.7
20260509151622 11 305 1.6 3.2 0.00 0.58 0.58 99 1010.9
20260509151120 11 123 3.2 4.8 0.00 0.58 0.58 99 1010.7
20260509150618 11 171 3.2 4.8 0.00 0.58 0.58 99 1010.9
20260509150116 11 89 4.8 4.8 0.13 0.58 0.58 99 1010.9
20260509145611 11 99 1.6 8.0 0.13 0.58 0.58 99 1010.8
20260509145107 11 160 3.2 8.0 0.00 0.56 0.56 99 1010.8
20260509144604 11 34 0.0 3.2 0.00 0.56 0.56 99 1011.0
20260509144101 10 31 0.0 1.6 0.00 0.56 0.56 99 1011.1
20260509143558 10 66 3.2 8.0 0.00 0.56 0.56 99 1011.1
20260509143055 10 126 4.8 9.7 0.18 0.56 0.56 99 1011.3
20260509142550 10 78 3.2 3.2 0.18 0.56 0.56 99 1011.4
20260509142047 10 30 0.0 3.2 0.00 0.53 0.53 99 1011.3
20260509141543 10 26 0.0 1.6 0.00 0.53 0.53 99 1011.4
20260509141040 10 37 0.0 1.6 0.13 0.53 0.53 99 1011.2
20260509140537 10 34 1.6 4.8 0.13 0.53 0.53 99 1011.4
20260509140035 10 38 0.0 3.2 0.00 0.51 0.51 99 1011.3
20260509135531 10 34 1.6 1.6 0.00 0.51 0.51 99 1011.5
20260509135029 10 16 0.0 0.0 0.18 0.51 0.51 99 1011.5
20260509134526 10 34 0.0 1.6 0.18 0.51 0.51 99 1011.5
20260509134024 10 35 0.0 1.6 0.00 0.48 0.48 99 1011.5
20260509133520 10 42 0.0 1.6 0.00 0.48 0.48 99 1011.3
20260509133018 10 40 0.0 1.6 0.00 0.48 0.48 99 1011.3
20260509132516 10 36 0.0 1.6 0.00 0.48 0.48 99 1011.2
20260509132014 10 31 0.0 0.0 0.00 0.48 0.48 99 1011.4
20260509131510 10 38 0.0 1.6 0.00 0.48 0.48 99 1011.2
20260509131007 10 190 3.2 3.2 0.00 0.48 0.48 99 1011.2
20260509130502 10 27 0.0 1.6 0.00 0.48 0.48 99 1011.3
20260509125959 10 11 0.0 1.6 0.00 0.48 0.48 99 1011.3
20260509125456 10 51 1.6 3.2 0.00 0.48 0.48 99 1011.3
20260509124951 10 42 0.0 3.2 0.00 0.48 0.48 99 1011.4
20260509124449 10 35 0.0 3.2 0.00 0.48 0.48 99 1011.4
20260509123946 10 42 0.0 1.6 0.00 0.48 0.48 99 1011.4
20260509123444 10 14 0.0 1.6 0.00 0.48 0.48 99 1011.3
20260509122939 10 34 0.0 1.6 0.00 0.48 0.48 99 1011.5
20260509122437 10 44 0.0 3.2 0.00 0.48 0.48 99 1011.7
20260509121933 10 26 0.0 1.6 0.00 0.48 0.48 99 1011.6
20260509121430 10 29 0.0 1.6 0.00 0.48 0.48 99 1011.7
20260509120928 10 351 1.6 1.6 0.00 0.48 0.48 99 1011.9
20260509120426 10 29 0.0 0.0 0.13 0.48 0.48 99 1011.8
20260509115924 10 40 0.0 1.6 0.13 0.48 0.48 99 1011.8
20260509115421 9 34 0.0 1.6 0.00 0.46 0.46 99 1011.7
20260509114918 9 44 0.0 0.0 0.00 0.46 0.46 99 1011.7
20260509114417 9 44 0.0 1.6 0.00 0.46 0.46 99 1011.7
20260509113916 9 39 0.0 0.0 0.00 0.46 0.46 99 1011.7
20260509113413 10 27 0.0 1.6 0.00 0.46 0.46 99 1011.8
20260509112909 9 47 0.0 1.6 0.00 0.46 0.46 99 1011.8
20260509112407 10 23 0.0 1.6 0.00 0.46 0.46 99 1011.8
20260509111904 9 43 0.0 1.6 0.00 0.46 0.46 99 1011.7
20260509111400 9 65 0.0 1.6 0.00 0.46 0.46 99 1011.9
20260509110858 9 38 0.0 4.8 0.00 0.46 0.46 99 1011.7
20260509110354 9 29 1.6 3.2 0.00 0.46 0.46 99 1011.9
20260509105852 9 43 1.6 1.6 0.00 0.46 0.46 99 1011.8
20260509105350 9 26 0.0 1.6 0.00 0.46 0.46 99 1011.8
20260509104847 9 23 0.0 1.6 0.00 0.46 0.46 99 1011.8
20260509104343 9 41 0.0 1.6 0.18 0.46 0.46 99 1011.8
20260509103841 9 35 1.6 3.2 0.18 0.46 0.46 99 1011.7
20260509103338 9 88 3.2 8.0 0.18 0.43 0.43 99 1011.7
20260509102837 9 34 0.0 3.2 0.18 0.43 0.43 99 1011.6
20260509102334 9 53 1.6 1.6 0.13 0.41 0.41 99 1011.7
20260509101829 9 35 0.0 3.2 0.13 0.41 0.41 99 1011.6
20260509101326 9 25 0.0 1.6 0.30 0.38 0.38 99 1011.5
20260509100824 9 36 0.0 1.6 0.30 0.38 0.38 99 1011.7
20260509100321 9 73 1.6 3.2 0.30 0.33 0.33 99 1011.7
20260509095817 9 44 1.6 1.6 0.30 0.30 0.30 99 1012.0
20260509095315 9 170 0.0 1.6 0.18 0.28 0.28 99 1011.8
20260509094812 9 170 1.6 3.2 0.00 0.25 0.25 99 1011.8
20260509094308 9 28 0.0 1.6 0.00 0.25 0.25 99 1011.8
20260509093806 9 31 0.0 0.0 0.00 0.25 0.25 99 1011.6
20260509093303 9 31 0.0 0.0 0.00 0.25 0.25 99 1011.6
20260509092802 9 30 0.0 0.0 0.00 0.25 0.25 99 1011.6
20260509092259 9 30 0.0 0.0 0.00 0.25 0.25 99 1011.6
20260509091757 9 30 0.0 0.0 0.00 0.25 0.25 99 1011.7
20260509091253 9 30 0.0 0.0 0.00 0.25 0.25 99 1011.7
20260509090751 9 30 0.0 0.0 0.00 0.25 0.25 99 1011.8
20260509090248 9 31 0.0 1.6 0.00 0.25 0.25 99 1011.6
20260509085745 9 48 0.0 1.6 0.13 0.25 0.25 99 1011.8
20260509085243 9 48 0.0 1.6 0.13 0.25 0.25 99 1011.7
20260509084739 9 48 0.0 0.0 0.00 0.23 0.23 99 1011.9
20260509084236 9 48 0.0 0.0 0.00 0.23 0.23 99 1011.8
20260509083734 9 48 0.0 0.0 0.00 0.23 0.23 99 1011.8
20260509083230 9 48 0.0 0.0 0.00 0.23 0.23 99 1011.9
20260509082727 9 48 0.0 0.0 0.00 0.23 0.23 99 1012.0
20260509082224 9 48 0.0 0.0 0.00 0.23 0.23 99 1011.9
20260509081720 9 48 0.0 0.0 0.00 0.23 0.23 99 1012.0
20260509081218 9 48 0.0 0.0 0.00 0.23 0.23 99 1011.9
20260509080716 9 48 0.0 0.0 0.00 0.23 0.23 99 1011.9
20260509080213 9 48 0.0 1.6 0.00 0.23 0.23 99 1012.1
20260509075711 9 48 0.0 1.6 0.00 0.23 0.23 99 1011.9
20260509075209 9 48 0.0 0.0 0.18 0.23 0.23 99 1012.0
20260509074705 9 48 0.0 1.6 0.18 0.23 0.23 99 1012.3
20260509074203 9 48 0.0 1.6 0.00 0.20 0.20 99 1012.4
20260509073659 9 53 0.0 3.2 0.13 0.20 0.20 99 1012.5
20260509073155 9 49 0.0 0.0 0.13 0.20 0.20 99 1012.5
20260509072652 9 49 0.0 0.0 0.00 0.18 0.18 99 1012.4
20260509072149 9 49 0.0 0.0 0.00 0.18 0.18 99 1012.5
20260509071645 9 49 0.0 0.0 0.00 0.18 0.18 99 1012.5
20260509071143 9 50 0.0 0.0 0.18 0.18 0.18 99 1012.3
20260509070640 9 49 0.0 1.6 0.18 0.18 0.18 99 1012.6
20260509070136 9 37 0.0 0.0 0.00 0.15 0.15 99 1012.6
20260509065632 9 37 0.0 1.6 0.00 0.15 0.15 99 1012.6
20260509065128 9 35 0.0 0.0 0.13 0.15 0.15 99 1012.6
20260509064625 9 33 0.0 0.0 0.13 0.15 0.15 99 1012.7
20260509064124 9 33 0.0 0.0 0.00 0.13 0.13 99 1012.7
20260509063620 9 34 0.0 0.0 0.18 0.13 0.13 99 1012.7
20260509063117 9 33 0.0 0.0 0.00 0.10 0.10 99 1012.7
20260509062614 9 33 0.0 0.0 0.00 0.10 0.10 99 1012.8
20260509062111 9 34 0.0 0.0 0.00 0.10 0.10 99 1012.6
20260509061608 9 34 0.0 1.6 0.18 0.10 0.10 99 1012.6
20260509061105 9 10 1.6 1.6 0.18 0.10 0.10 99 1012.7
20260509060603 9 58 0.0 1.6 0.00 0.08 0.08 99 1012.5
20260509060058 9 28 0.0 1.6 0.00 0.08 0.08 99 1012.7
20260509055554 9 28 0.0 1.6 0.00 0.08 0.08 99 1012.7
20260509055050 9 27 0.0 0.0 0.13 0.08 0.08 99 1012.8
20260509054547 9 28 0.0 1.6 0.13 0.08 0.08 99 1013.0
20260509054045 9 25 0.0 0.0 0.00 0.05 0.05 99 1012.9
20260509053543 9 25 0.0 0.0 0.00 0.05 0.05 99 1013.0
20260509053040 9 19 0.0 1.6 0.18 0.05 0.05 99 1013.1
20260509052538 9 19 0.0 0.0 0.18 0.05 0.05 99 1013.2
20260509052035 9 20 0.0 1.6 0.00 0.03 0.03 99 1013.1
20260509051533 9 348 0.0 1.6 0.00 0.03 0.03 99 1013.0
20260509051030 9 347 0.0 0.0 0.00 0.03 0.03 99 1013.0
20260509050526 9 347 0.0 1.6 0.13 0.03 0.03 99 1012.9
20260509050017 9 37 0.0 0.0 0.13 0.03 0.03 99 1012.8
20260509045515 9 36 0.0 0.0 0.00 0.00 0.00 99 1012.7
20260509045011 8 37 0.0 0.0 0.00 0.00 0.00 99 1013.0
20260509044509 9 25 1.6 1.6 0.00 0.00 0.00 99 1012.9
20260509044006 8 24 0.0 0.0 0.00 0.00 0.00 99 1013.1
20260509043502 8 24 0.0 0.0 0.00 0.00 0.00 98 1012.8
20260509042957 8 24 0.0 0.0 0.00 0.00 0.00 98 1012.7
20260509042455 8 13 0.0 0.0 0.00 0.00 0.00 98 1012.8
20260509041950 8 13 0.0 1.6 0.00 0.00 0.00 98 1013.0
20260509041447 8 14 0.0 1.6 0.00 0.00 0.00 98 1012.8
20260509040946 9 29 0.0 0.0 0.00 0.00 0.00 97 1012.7
20260509040444 8 33 1.6 1.6 0.00 0.00 0.00 97 1012.7
20260509035940 8 34 0.0 0.0 0.00 0.05 0.05 97 1012.8
20260509035437 8 36 1.6 1.6 0.00 0.05 0.05 98 1013.0
20260509034933 8 27 0.0 0.0 0.00 0.05 0.05 97 1013.0
20260509034431 8 27 0.0 1.6 0.00 0.05 0.05 97 1013.0
20260509033928 8 22 1.6 1.6 0.00 0.05 0.05 97 1012.9
20260509033425 8 22 0.0 0.0 0.00 0.05 0.05 97 1013.0
20260509032921 8 25 0.0 1.6 0.00 0.05 0.05 97 1013.0
20260509032419 8 25 0.0 1.6 0.00 0.05 0.05 96 1013.1
20260509031917 8 27 0.0 1.6 0.00 0.05 0.05 96 1013.0
20260509031414 8 28 0.0 1.6 0.00 0.05 0.05 96 1012.9
20260509030911 8 27 0.0 0.0 0.00 0.05 0.05 96 1012.9
20260509030409 8 28 0.0 1.6 0.00 0.05 0.05 95 1013.0
20260509025906 8 28 0.0 1.6 0.00 0.05 0.05 95 1012.9
20260509025402 9 29 0.0 1.6 0.00 0.05 0.05 94 1012.8
20260509024857 9 29 1.6 1.6 0.00 0.05 0.05 94 1012.9
20260509024353 9 28 0.0 1.6 0.00 0.05 0.05 94 1013.0
20260509023850 9 27 0.0 0.0 0.00 0.05 0.05 93 1013.1
20260509023348 9 28 1.6 1.6 0.00 0.05 0.05 93 1013.1
20260509022844 10 20 0.0 1.6 0.00 0.05 0.05 92 1013.0
20260509022341 10 20 0.0 0.0 0.00 0.05 0.05 92 1012.9
20260509021838 10 19 0.0 1.6 0.00 0.05 0.05 91 1012.7
20260509021335 10 46 0.0 0.0 0.00 0.05 0.05 91 1012.9
20260509020833 10 46 0.0 1.6 0.00 0.05 0.05 90 1012.9
20260509020331 10 46 0.0 1.6 0.00 0.05 0.05 89 1012.6
20260509015828 11 47 1.6 1.6 0.00 0.05 0.05 88 1012.9
20260509015326 11 46 0.0 1.6 0.00 0.05 0.05 88 1012.8
20260509014823 11 3 0.0 1.6 0.00 0.05 0.05 87 1012.9
20260509014320 11 5 0.0 1.6 0.00 0.05 0.05 86 1012.8
20260509013816 11 43 1.6 1.6 0.00 0.05 0.05 89 1012.8
20260509013313 11 37 0.0 4.8 0.00 0.05 0.05 89 1012.8
20260509012809 10 60 0.0 1.6 0.00 0.05 0.05 90 1012.7
20260509012307 10 61 1.6 1.6 0.00 0.05 0.05 91 1012.8
20260509011803 10 60 0.0 0.0 0.00 0.05 0.05 90 1012.5
20260509011300 10 60 0.0 1.6 0.00 0.05 0.05 91 1012.5
20260509010758 10 60 0.0 0.0 0.00 0.05 0.05 90 1012.6
20260509010254 10 60 0.0 0.0 0.00 0.05 0.05 90 1012.3
20260509005752 10 60 0.0 1.6 0.00 0.05 0.05 89 1012.2
20260509005244 10 60 0.0 0.0 0.00 0.05 0.05 88 1012.4
20260509004743 10 60 0.0 0.0 0.00 0.05 0.05 88 1012.2
20260509004241 11 60 0.0 0.0 0.00 0.05 0.05 87 1012.2
20260509003739 10 61 0.0 0.0 0.00 0.05 0.05 86 1012.3
20260509003236 10 61 0.0 1.6 0.00 0.05 0.05 86 1012.0
20260509002733 11 61 0.0 0.0 0.00 0.05 0.05 85 1012.1
20260509002231 11 61 0.0 1.6 0.00 0.05 0.05 84 1012.0
20260509001729 11 61 1.6 1.6 0.00 0.05 0.05 83 1012.0
20260509001224 11 61 0.0 1.6 0.00 0.05 0.05 81 1011.8
20260509000722 11 61 0.0 0.0 0.00 0.05 0.05 78 1011.8
20260509000219 11 61 0.0 0.0 0.00 0.05 0.05 78 1011.8
20260508235716 12 61 1.6 1.6 0.00 0.05 0.05 76 1011.5
20260508235213 12 61 0.0 1.6 0.00 0.05 0.05 75 1011.8
20260508234710 12 82 3.2 3.2 0.00 0.05 0.05 71 1011.7
20260508234206 12 62 1.6 1.6 0.00 0.05 0.05 72 1011.7
20260508233700 12 65 0.0 3.2 0.00 0.05 0.05 74 1011.6
20260508233157 12 64 0.0 1.6 0.00 0.05 0.05 75 1011.5
20260508232655 13 64 0.0 3.2 0.00 0.05 0.05 73 1011.7
20260508232151 13 61 1.6 3.2 0.00 0.05 0.05 73 1011.6
20260508231649 13 65 1.6 3.2 0.00 0.05 0.05 71 1011.5
20260508231146 12 63 1.6 3.2 0.00 0.05 0.05 72 1011.4
20260508230642 13 58 1.6 1.6 0.00 0.05 0.05 72 1011.4
20260508230139 13 73 1.6 4.8 0.00 0.05 0.05 71 1011.4
20260508225637 13 104 3.2 3.2 0.00 0.05 0.05 71 1011.5
20260508225132 13 61 1.6 4.8 0.00 0.05 0.05 73 1011.5
20260508224631 13 105 3.2 3.2 0.00 0.05 0.05 72 1011.5
20260508224128 13 128 3.2 4.8 0.00 0.05 0.05 70 1011.4
20260508223626 13 51 1.6 1.6 0.00 0.05 0.05 69 1011.3
20260508223122 13 38 3.2 3.2 0.00 0.05 0.05 70 1011.3
20260508222620 13 69 3.2 3.2 0.00 0.05 0.05 70 1011.5
20260508222117 13 87 3.2 4.8 0.00 0.05 0.05 70 1011.7
20260508221613 13 120 4.8 8.0 0.00 0.05 0.05 63 1011.7
20260508221109 14 97 3.2 3.2 0.00 0.05 0.05 62 1011.6
20260508220606 14 344 1.6 3.2 0.00 0.05 0.05 55 1011.6
20260508215559 14 30 0.0 1.6 0.00 0.05 0.05 56 1011.2
20260508215055 15 352 1.6 1.6 0.00 0.05 0.05 54 1011.4
20260508214553 15 176 4.8 4.8 0.00 0.05 0.05 56 1011.2
20260508214049 15 315 1.6 3.2 0.00 0.05 0.05 53 1011.3
20260508213546 15 39 3.2 3.2 0.00 0.05 0.05 52 1011.2
20260508213042 15 94 3.2 4.8 0.00 0.05 0.05 55 1011.2
20260508212539 15 311 0.0 1.6 0.00 0.05 0.05 55 1011.3
20260508212035 15 177 4.8 4.8 0.00 0.05 0.05 55 1011.4
20260508211531 14 355 0.0 1.6 0.00 0.05 0.05 54 1011.6
20260508211028 15 337 0.0 3.2 0.00 0.05 0.05 54 1011.7
20260508210524 14 7 0.0 1.6 0.00 0.05 0.05 55 1011.7
20260508210022 14 59 3.2 4.8 0.00 0.05 0.05 58 1011.8
20260508205518 14 21 3.2 8.0 0.00 0.05 0.05 61 1011.6
20260508205014 14 331 1.6 8.0 0.00 0.05 0.05 56 1011.7
20260508204512 15 11 6.4 9.7 0.00 0.05 0.05 55 1011.9
20260508204008 13 331 1.6 9.7 0.00 0.05 0.05 60 1011.9
20260508203504 15 11 1.6 9.7 0.00 0.05 0.05 60 1011.9
20260508203000 13 5 0.0 3.2 0.00 0.05 0.05 62 1012.1
20260508202457 13 30 0.0 1.6 0.00 0.05 0.05 60 1012.1
20260508201954 13 8 1.6 1.6 0.00 0.05 0.05 62 1012.0